Temp
-18 -19 -19 -20 -20 -21 -21 -22 -22 -22 -22 -22 -21 -21 -22 -23 -24 -24 -24 -24 -24 -24 -24 -24 -25 -25 -25 -25 -25 -25 -26 -26 -25 -25 -24 -22 -20 -20 -20 -19 -18 -17
-19 -19 -19 -20 -21 -21 -22 -22 -22 -22 -22 -22 -21 -22 -23 -23 -24 -24 -24 -24 -24 -24 -24 -24 -25 -25 -25 -25 -25 -25 -25 -25 -25 -25 -23 -21 -20 -20 -20 -20 -19 -18
-19 -19 -20 -21 -21 -22 -22 -22 -22 -22 -22 -22 -22 -22 -23 -24 -24 -24 -24 -24 -24 -24 -24 -24 -25 -25 -25 -25 -25 -25 -25 -25 -25 -25 -23 -21 -20 -20 -20 -20 -20 -19
-19 -20 -20 -21 -21 -22 -22 -22 -22 -22 -22 -22 -22 -23 -24 -24 -24 -24 -24 -24 -24 -24 -24 -25 -25 -26 -26 -26 -26 -25 -25 -25 -25 -25 -23 -21 -20 -20 -19 -19 -19 -19
-20 -20 -21 -21 -22 -22 -22 -22 -22 -22 -22 -22 -22 -23 -24 -24 -24 -24 -24 -24 -24 -24 -25 -25 -26 -26 -26 -26 -26 -26 -25 -25 -25 -24 -22 -21 -20 -20 -19 -19 -19 -18
-20 -21 -21 -21 -22 -22 -22 -22 -22 -22 -22 -22 -22 -23 -25 -25 -24 -24 -24 -24 -24 -24 -25 -25 -26 -26 -26 -26 -26 -26 -25 -25 -25 -24 -22 -21 -20 -20 -20 -20 -19 -19
-20 -21 -21 -22 -22 -22 -22 -22 -22 -22 -22 -22 -23 -24 -25 -25 -24 -24 -24 -24 -24 -25 -25 -26 -26 -26 -26 -26 -26 -25 -25 -25 -25 -23 -22 -21 -20 -20 -20 -20 -19 -19
-21 -21 -21 -22 -22 -22 -22 -22 -22 -22 -22 -22 -23 -24 -24 -24 -24 -24 -24 -24 -25 -25 -25 -26 -26 -27 -26 -26 -26 -25 -25 -25 -24 -23 -22 -21 -20 -20 -20 -20 -19 -19
-21 -21 -22 -22 -22 -22 -22 -22 -22 -22 -22 -23 -24 -24 -24 -24 -24 -24 -24 -25 -25 -25 -26 -26 -26 -26 -26 -26 -25 -25 -25 -25 -24 -23 -22 -21 -20 -20 -19 -19 -19 -18
-21 -21 -22 -22 -22 -23 -22 -22 -22 -22 -22 -23 -24 -25 -24 -24 -24 -25 -25 -25 -25 -26 -26 -26 -26 -26 -26 -26 -25 -25 -25 -24 -24 -23 -21 -21 -20 -20 -19 -19 -19 -18
-21 -22 -22 -22 -22 -23 -22 -22 -22 -22 -23 -24 -25 -25 -24 -24 -25 -25 -25 -25 -26 -26 -26 -26 -27 -26 -26 -25 -25 -25 -25 -24 -23 -22 -21 -21 -20 -20 -20 -19 -19 -19
-22 -22 -22 -22 -23 -22 -22 -22 -22 -22 -23 -24 -25 -25 -24 -24 -25 -25 -25 -25 -26 -26 -26 -26 -27 -26 -26 -25 -25 -25 -25 -24 -23 -22 -21 -21 -20 -20 -20 -20 -19 -19
-22 -22 -22 -23 -23 -23 -22 -22 -22 -22 -23 -24 -25 -25 -25 -25 -25 -25 -25 -25 -26 -26 -26 -26 -27 -26 -26 -25 -25 -25 -24 -24 -23 -22 -21 -20 -20 -20 -20 -20 -19 -19
-22 -22 -23 -23 -23 -22 -22 -22 -22 -23 -24 -25 -25 -25 -25 -25 -25 -25 -25 -25 -26 -26 -26 -26 -26 -26 -25 -25 -25 -25 -24 -24 -24 -23 -21 -20 -20 -20 -20 -20 -20 -19
-22 -23 -23 -23 -23 -22 -22 -22 -22 -23 -24 -25 -25 -25 -25 -25 -25 -25 -25 -25 -26 -26 -26 -26 -26 -26 -25 -25 -25 -25 -24 -24 -24 -23 -21 -20 -20 -20 -20 -20 -20 -19
-23 -23 -23 -23 -23 -22 -22 -22 -23 -23 -24 -25 -25 -25 -25 -25 -26 -26 -25 -26 -26 -26 -26 -27 -26 -26 -25 -25 -25 -25 -24 -24 -24 -23 -21 -20 -20 -20 -20 -20 -20 -19
-23 -23 -23 -23 -23 -22 -22 -22 -23 -24 -25 -26 -26 -25 -26 -26 -26 -26 -26 -26 -26 -26 -26 -27 -26 -26 -25 -25 -25 -25 -25 -24 -24 -23 -21 -20 -20 -20 -20 -21 -20 -20
-23 -23 -23 -23 -23 -22 -22 -23 -24 -25 -26 -26 -26 -26 -26 -26 -26 -26 -26 -26 -26 -26 -26 -26 -26 -25 -25 -25 -25 -25 -25 -24 -24 -23 -21 -20 -20 -20 -21 -21 -20 -20
-23 -23 -23 -23 -23 -22 -22 -23 -24 -25 -27 -27 -26 -26 -26 -26 -26 -26 -26 -26 -26 -26 -26 -26 -26 -25 -25 -25 -25 -25 -25 -24 -24 -23 -21 -20 -20 -20 -21 -21 -20 -20
-23 -23 -23 -23 -23 -23 -23 -23 -24 -26 -28 -27 -26 -26 -26 -26 -26 -26 -26 -26 -26 -26 -26 -26 -26 -25 -25 -25 -25 -24 -25 -24 -24 -22 -21 -20 -20 -20 -21 -20 -20 -20
-24 -23 -23 -23 -23 -23 -23 -24 -25 -27 -28 -27 -26 -26 -26 -26 -26 -26 -26 -26 -26 -26 -26 -26 -26 -25 -25 -25 -25 -24 -24 -24 -24 -22 -21 -20 -20 -20 -20 -20 -20 -20
-24 -24 -23 -23 -23 -23 -24 -24 -25 -27 -28 -27 -26 -26 -27 -26 -26 -27 -26 -26 -26 -26 -26 -26 -26 -25 -25 -25 -25 -24 -24 -24 -24 -22 -21 -20 -20 -20 -20 -20 -20 -19
-24 -24 -24 -23 -23 -24 -24 -25 -26 -27 -28 -28 -27 -26 -27 -27 -27 -27 -27 -26 -26 -26 -26 -26 -26 -26 -25 -24 -24 -24 -24 -24 -24 -22 -21 -20 -20 -20 -20 -20 -20 -19
-24 -24 -24 -24 -24 -24 -25 -26 -26 -28 -28 -28 -27 -26 -26 -27 -27 -27 -27 -27 -26 -26 -26 -26 -26 -26 -25 -25 -24 -24 -24 -24 -24 -22 -21 -20 -20 -20 -20 -20 -20 -19
-24 -24 -24 -24 -25 -25 -26 -26 -27 -28 -28 -28 -27 -27 -26 -27 -27 -27 -27 -27 -27 -26 -26 -26 -26 -26 -25 -25 -24 -24 -24 -24 -24 -23 -21 -20 -20 -20 -21 -20 -20 -20
-24 -24 -25 -25 -26 -26 -27 -27 -27 -28 -28 -28 -27 -27 -27 -27 -27 -27 -27 -27 -27 -27 -26 -26 -26 -26 -26 -25 -24 -24 -24 -24 -24 -23 -21 -20 -20 -20 -21 -20 -20 -20
Height
5508 5502 5496 5490 5483 5475 5468 5462 5455 5448 5441 5433 5424 5415 5408 5403 5397 5394 5393 5391 5388 5387 5386 5385 5384 5383 5383 5385 5387 5390 5392 5395 5396 5397 5400 5406 5414 5426 5438 5448 5459 5469
5500 5494 5487 5481 5475 5468 5460 5452 5445 5438 5431 5422 5412 5402 5396 5392 5387 5384 5383 5381 5378 5376 5375 5374 5373 5373 5373 5375 5377 5379 5382 5385 5387 5388 5392 5398 5407 5419 5430 5440 5450 5461
5492 5485 5479 5472 5466 5460 5452 5445 5437 5428 5420 5412 5402 5391 5385 5381 5378 5375 5373 5371 5369 5367 5365 5363 5362 5362 5363 5364 5366 5369 5373 5376 5378 5380 5383 5390 5401 5413 5423 5433 5444 5454
5485 5477 5470 5463 5457 5450 5444 5436 5428 5419 5411 5401 5392 5382 5374 5371 5369 5366 5364 5361 5359 5357 5355 5353 5353 5353 5353 5354 5357 5360 5364 5368 5370 5372 5375 5384 5396 5408 5418 5428 5439 5448
5476 5469 5462 5454 5448 5441 5435 5428 5418 5409 5400 5390 5381 5372 5365 5362 5360 5358 5355 5352 5349 5347 5345 5344 5344 5344 5343 5345 5348 5351 5355 5359 5363 5365 5370 5380 5392 5403 5413 5422 5432 5441
5467 5460 5453 5446 5439 5432 5425 5419 5410 5400 5390 5380 5370 5363 5356 5353 5352 5349 5346 5343 5340 5337 5336 5336 5336 5334 5333 5336 5339 5343 5347 5352 5356 5359 5365 5376 5386 5397 5407 5416 5425 5434
5459 5453 5446 5438 5430 5423 5416 5409 5401 5390 5379 5369 5360 5353 5348 5345 5343 5340 5338 5335 5332 5329 5327 5327 5327 5325 5323 5326 5331 5335 5340 5345 5350 5355 5362 5371 5380 5390 5401 5410 5418 5427
5451 5445 5438 5431 5423 5416 5408 5401 5392 5381 5370 5360 5351 5345 5341 5338 5335 5333 5330 5327 5324 5321 5318 5317 5317 5315 5314 5318 5323 5328 5333 5339 5345 5351 5357 5365 5373 5383 5394 5403 5411 5420
5442 5436 5429 5422 5414 5407 5401 5393 5384 5373 5361 5351 5343 5337 5334 5330 5327 5325 5323 5319 5315 5312 5310 5308 5306 5305 5305 5310 5316 5321 5326 5332 5339 5345 5351 5359 5368 5377 5386 5395 5405 5414
5433 5428 5421 5413 5406 5399 5392 5384 5375 5364 5352 5342 5335 5330 5326 5323 5320 5317 5315 5311 5307 5304 5302 5300 5297 5296 5297 5303 5308 5314 5320 5325 5332 5339 5345 5353 5361 5369 5378 5388 5398 5408
5424 5419 5412 5405 5397 5390 5383 5375 5365 5354 5343 5333 5327 5323 5319 5316 5313 5310 5307 5304 5299 5296 5294 5292 5289 5288 5290 5296 5302 5308 5314 5319 5325 5332 5338 5347 5354 5362 5371 5381 5391 5401
5416 5410 5404 5396 5388 5381 5374 5366 5356 5345 5335 5326 5320 5316 5313 5309 5306 5304 5300 5296 5292 5289 5287 5285 5282 5281 5285 5290 5296 5302 5308 5314 5320 5325 5332 5340 5348 5356 5366 5375 5384 5393
5408 5401 5395 5387 5379 5372 5364 5356 5347 5336 5326 5319 5314 5310 5306 5302 5300 5297 5293 5289 5285 5283 5280 5278 5276 5276 5280 5286 5291 5297 5303 5309 5315 5319 5326 5334 5342 5350 5360 5369 5377 5387
5400 5393 5387 5379 5371 5364 5356 5347 5338 5328 5318 5312 5308 5304 5300 5296 5293 5291 5286 5282 5279 5277 5275 5272 5271 5272 5275 5281 5287 5292 5298 5304 5309 5314 5320 5329 5337 5346 5355 5363 5371 5380
5392 5385 5379 5371 5363 5355 5347 5338 5329 5320 5311 5305 5301 5298 5294 5290 5287 5284 5280 5276 5273 5271 5269 5267 5267 5268 5271 5276 5282 5287 5292 5298 5303 5308 5314 5324 5333 5341 5350 5358 5366 5375
5384 5377 5370 5363 5355 5347 5338 5329 5320 5311 5304 5298 5295 5291 5287 5283 5280 5277 5274 5270 5267 5266 5265 5263 5263 5264 5267 5271 5276 5281 5287 5292 5298 5303 5309 5319 5329 5337 5345 5353 5361 5370
5377 5370 5362 5354 5346 5338 5330 5320 5311 5302 5296 5291 5288 5285 5281 5277 5274 5271 5267 5264 5262 5261 5260 5259 5259 5260 5263 5267 5272 5276 5281 5287 5292 5298 5306 5315 5324 5333 5341 5349 5357 5365
5368 5362 5355 5347 5339 5330 5321 5312 5303 5294 5288 5284 5281 5278 5274 5271 5267 5265 5262 5258 5256 5256 5255 5254 5254 5256 5259 5263 5267 5272 5276 5281 5287 5293 5302 5313 5321 5329 5338 5345 5353 5361
5360 5353 5347 5339 5331 5322 5313 5303 5295 5287 5280 5277 5275 5271 5267 5264 5261 5259 5256 5252 5250 5250 5250 5250 5250 5251 5255 5258 5262 5267 5272 5276 5282 5289 5298 5309 5318 5325 5334 5342 5349 5357
5352 5344 5337 5330 5322 5313 5304 5295 5286 5279 5274 5270 5267 5264 5260 5257 5254 5252 5249 5245 5243 5243 5244 5245 5245 5246 5249 5253 5257 5263 5267 5271 5277 5284 5294 5305 5313 5321 5329 5338 5345 5352
5344 5336 5329 5321 5314 5304 5296 5287 5279 5272 5267 5263 5260 5257 5253 5250 5248 5245 5242 5238 5235 5236 5237 5239 5239 5240 5243 5247 5252 5257 5261 5266 5272 5279 5289 5300 5309 5317 5325 5333 5340 5347
5335 5328 5320 5313 5305 5296 5287 5280 5271 5265 5261 5256 5253 5250 5246 5243 5241 5238 5235 5231 5228 5228 5230 5232 5233 5234 5237 5241 5246 5251 5256 5261 5267 5274 5284 5294 5304 5312 5321 5328 5335 5343
5326 5319 5312 5304 5296 5287 5279 5272 5264 5258 5255 5250 5245 5243 5240 5237 5235 5232 5228 5224 5222 5222 5223 5226 5227 5227 5231 5235 5240 5245 5251 5257 5263 5270 5279 5289 5299 5307 5315 5323 5331 5339
5319 5310 5302 5295 5286 5277 5270 5263 5257 5252 5248 5244 5239 5236 5234 5231 5229 5226 5222 5217 5215 5216 5217 5219 5220 5221 5224 5229 5235 5240 5246 5252 5258 5265 5273 5283 5293 5301 5309 5318 5326 5334
5311 5302 5294 5285 5277 5269 5261 5255 5250 5246 5242 5238 5233 5229 5227 5225 5222 5220 5216 5211 5209 5209 5210 5212 5214 5215 5218 5223 5229 5234 5240 5246 5253 5260 5269 5278 5288 5296 5304 5313 5321 5330
5303 5294 5285 5277 5268 5261 5254 5248 5243 5239 5237 5232 5227 5223 5221 5219 5217 5214 5210 5205 5203 5202 5203 5204 5206 5208 5211 5216 5223 5228 5234 5240 5247 5256 5264 5273 5282 5292 5300 5309 5317 5326
Wind_Speed
87 88 88 87 86 85 85 85 85 87 89 93 98 99 96 82 58 49 50 53 55 55 54 54 57 61 62 62 63 62 60 59 54 54 70 95 103 97 98 103 103 101
87 87 87 86 85 85 85 86 86 88 91 95 100 100 93 76 54 48 51 53 54 55 53 54 57 60 62 62 63 63 61 57 53 52 68 97 103 94 97 101 102 103
86 86 87 86 85 85 86 86 87 90 93 97 100 98 87 69 51 48 52 54 54 53 52 53 55 57 60 62 62 63 61 56 51 50 67 96 101 90 95 98 96 100
85 86 87 87 86 86 86 87 89 92 95 98 100 94 80 63 50 48 53 54 52 51 52 52 51 53 57 60 60 60 59 55 48 48 67 96 100 91 93 94 90 93
84 86 87 88 87 87 87 87 90 94 97 100 99 89 72 58 50 50 52 51 50 51 51 50 49 51 55 58 58 58 57 53 45 47 68 95 101 95 90 85 80 83
84 86 88 88 88 88 87 88 90 95 99 100 97 83 64 55 52 50 49 48 49 51 51 49 48 50 54 56 57 56 56 51 44 48 72 94 99 95 88 80 74 75
84 86 87 88 89 88 87 88 91 96 99 99 93 76 59 54 52 47 45 46 49 52 51 49 49 50 53 56 56 56 55 50 43 51 76 93 92 87 83 81 79 77
85 86 87 88 88 87 87 89 93 98 99 96 88 70 55 53 51 45 44 47 50 52 51 49 49 50 53 56 56 56 54 48 45 54 76 92 88 79 79 82 85 83
85 86 87 87 87 86 87 90 94 98 98 93 81 63 52 51 48 45 45 47 50 52 50 49 49 48 53 56 56 57 54 49 48 57 76 90 86 78 79 83 87 87
85 86 86 86 86 86 88 91 95 97 95 88 74 58 52 50 47 46 46 47 50 51 49 48 48 46 53 56 56 57 54 49 51 61 76 87 85 79 79 78 81 83
85 85 85 85 85 86 89 92 95 95 92 82 66 54 51 49 45 46 47 47 49 49 47 47 45 44 53 56 56 57 54 51 54 65 78 86 86 82 76 71 72 75
84 85 85 85 86 88 90 92 93 93 87 75 59 51 50 48 44 45 47 47 47 47 46 45 42 43 53 56 56 57 54 52 56 68 80 87 88 83 75 70 70 71
84 85 84 84 87 89 91 92 92 90 82 67 54 50 48 45 44 45 46 47 45 44 45 44 39 43 52 55 56 57 54 51 55 67 80 88 89 83 75 73 73 71
84 84 84 85 87 89 91 92 90 86 78 62 50 48 47 44 43 45 46 46 43 42 43 42 37 43 51 53 55 56 54 52 54 65 78 87 88 83 77 76 78 75
83 83 83 85 87 89 91 92 89 83 73 58 48 46 46 44 44 45 46 45 41 39 40 39 35 43 51 52 54 56 54 52 54 64 78 85 86 84 80 76 78 79
82 83 84 85 88 90 92 92 88 80 68 55 48 46 45 44 45 46 46 44 39 37 37 36 34 43 50 51 54 55 54 53 55 64 78 84 84 84 80 73 73 78
82 82 84 86 88 91 93 92 85 76 64 53 47 46 44 44 45 46 46 43 38 36 34 33 33 43 50 51 54 55 54 54 57 66 79 84 83 82 76 69 70 76
82 83 84 87 90 92 93 91 83 70 59 51 47 46 45 45 45 45 45 43 38 36 34 31 33 43 49 52 55 55 54 54 57 67 79 85 83 79 73 68 71 75
82 84 86 88 91 93 93 90 80 64 54 50 48 47 45 44 45 45 45 44 39 37 34 31 34 45 50 52 55 55 54 55 58 67 79 85 83 79 72 70 73 76
83 86 88 90 92 94 93 88 76 59 50 49 48 46 44 44 44 44 45 44 39 38 36 32 34 46 52 52 56 56 53 55 59 67 79 87 85 80 74 72 74 77
84 87 90 91 93 94 91 86 72 54 48 49 48 45 43 42 42 43 45 43 39 38 37 33 34 46 54 54 56 56 53 55 60 67 79 88 87 81 76 73 74 78
86 89 91 93 94 94 90 83 68 51 46 50 48 43 41 41 40 41 43 41 37 37 38 35 34 44 56 57 56 57 54 54 60 67 78 89 88 81 77 75 75 78
87 90 92 93 94 92 87 79 63 48 45 50 47 41 39 39 39 40 42 39 34 35 37 36 34 41 56 60 58 57 54 54 59 67 78 89 89 83 79 78 76 78
88 91 92 93 92 89 83 74 60 47 45 49 48 41 37 37 37 38 40 38 33 33 35 36 34 38 52 62 60 57 55 54 58 67 77 88 90 85 81 79 77 77
89 91 92 90 89 84 78 70 57 46 45 48 47 42 37 36 37 38 39 38 32 31 34 36 36 36 47 61 62 58 56 55 58 66 76 86 91 87 82 81 78 78
90 91 89 87 84 79 73 65 54 46 45 47 45 41 36 36 36 37 38 37 31 29 32 35 37 37 44 59 63 60 57 56 58 64 73 83 89 88 84 81 80 79
Wind_Direction
311 311 312 312 313 313 313 313 313 314 315 316 316 315 315 313 300 278 275 277 276 277 278 275 265 258 254 250 249 248 250 255 255 245 228 212 203 201 202 203 206 209
311 311 312 312 313 313 313 313 314 315 316 317 317 316 315 312 297 278 277 279 277 276 278 275 266 258 254 250 248 247 248 253 254 246 228 212 202 199 202 204 206 208
311 312 312 312 312 313 313 314 314 315 317 317 317 316 313 309 295 280 279 281 279 276 277 275 267 260 254 249 247 245 247 251 253 248 227 210 201 197 201 204 205 208
312 312 312 312 312 313 313 314 315 316 317 318 317 316 311 304 294 284 282 282 279 277 277 275 269 262 254 248 246 244 245 248 252 247 225 207 200 197 199 201 203 207
313 313 313 313 313 313 313 315 316 317 318 318 318 315 308 299 292 288 284 281 279 278 279 275 269 262 254 247 243 242 243 246 250 242 219 204 199 199 197 195 198 203
314 313 313 313 313 313 314 315 317 318 319 318 318 315 305 295 292 288 284 281 280 281 280 275 269 263 253 245 240 239 241 243 245 234 213 200 198 200 199 196 197 202
314 314 314 313 314 314 315 317 318 319 319 318 318 313 301 293 292 289 284 284 284 283 281 275 271 263 250 242 238 236 239 241 239 226 208 199 199 201 201 200 201 204
314 314 314 314 314 315 316 318 319 320 319 318 316 311 299 293 291 288 287 287 287 285 281 276 274 264 246 237 235 233 236 238 233 222 209 202 201 200 198 200 202 206
314 314 314 315 315 316 317 319 320 320 319 318 315 307 297 293 290 288 290 291 290 288 282 278 278 263 240 233 232 231 233 234 228 219 210 205 202 197 192 196 201 205
314 315 315 315 316 317 319 320 321 320 319 317 313 304 297 294 289 288 292 294 293 289 282 281 280 259 234 228 229 229 231 230 223 218 211 205 203 196 189 191 196 200
314 315 315 316 317 318 320 321 322 321 319 316 310 301 297 295 290 289 294 296 294 288 283 284 280 253 230 225 226 227 229 228 221 216 211 206 202 198 192 191 193 196
314 315 316 317 318 319 321 323 323 322 320 315 306 300 297 295 292 293 296 297 293 286 284 286 277 248 228 223 224 225 227 226 220 216 212 206 202 201 199 194 192 193
314 315 317 318 319 320 322 324 325 324 320 313 303 299 298 295 294 296 298 298 292 283 283 286 272 243 226 222 222 223 225 225 221 217 213 206 202 202 202 198 194 193
314 315 317 319 319 321 323 325 326 325 320 311 301 298 297 294 294 298 300 299 290 280 282 285 267 238 225 221 221 222 224 225 222 219 214 207 202 201 201 201 200 197
314 316 318 319 320 322 324 326 327 325 318 308 299 298 296 293 294 299 302 299 287 276 280 283 263 234 224 221 220 221 223 224 222 219 215 208 203 201 201 203 204 203
314 316 318 319 320 322 325 326 327 324 316 305 298 298 295 291 293 298 303 300 284 272 277 280 259 231 223 221 219 219 221 223 221 218 215 208 203 201 202 203 206 206
315 317 318 319 321 323 325 327 326 321 313 303 298 299 295 291 292 297 302 300 283 268 272 276 254 229 222 221 218 217 220 221 220 218 213 208 204 202 202 204 205 207
315 317 318 319 321 323 325 326 325 319 309 301 299 300 295 290 291 296 301 299 283 266 268 270 249 228 222 220 217 216 219 220 218 217 212 208 205 202 202 204 203 206
315 317 318 319 321 323 324 326 324 316 306 301 301 300 295 290 291 296 300 297 282 265 264 264 245 227 221 220 217 216 219 219 216 215 211 206 204 204 203 202 201 203
316 318 319 320 322 323 324 325 323 314 304 303 303 301 294 290 292 297 300 296 281 264 260 261 245 227 220 220 218 216 218 219 215 214 209 204 204 205 203 201 200 202
317 318 320 321 322 322 323 325 321 312 305 305 305 300 293 291 294 299 302 296 279 262 257 258 247 229 220 218 218 216 218 218 215 212 208 203 203 205 202 199 199 202
318 319 320 321 322 322 323 324 320 311 307 307 305 299 293 292 296 301 304 298 279 261 255 255 249 231 220 217 217 216 217 218 215 211 207 203 203 204 202 199 198 201
318 320 320 321 322 322 323 324 319 311 310 310 305 298 291 292 296 302 306 301 280 261 254 252 251 236 221 216 216 215 217 217 215 211 207 204 203 203 201 199 197 199
319 320 320 321 322 322 322 323 319 312 312 312 306 298 291 291 295 301 306 303 284 264 255 251 252 241 223 216 214 214 216 217 214 211 207 204 203 202 200 198 197 197
320 320 321 321 321 321 322 322 318 314 314 312 306 298 292 292 296 301 306 305 289 269 259 253 253 245 226 216 213 212 213 216 214 209 207 205 204 202 200 199 198 197
321 321 321 321 321 321 322 321 318 315 316 313 306 299 293 293 297 301 306 307 294 275 265 257 254 246 226 214 212 211 211 214 213 208 206 206 204 203 201 199 199 197